Regional Weather Roundup
Issued by NWS

Home | Current Version | Previous Version | Text Only | Print | Product List | Glossary Off
Versions: 1 2 3 4 5 6 7 8 9 10 11 12 13 14 15 16 17 18 19 20 21 22 23 24 25 26 27

000
ASUS45 KCYS 201410
RWRWY

WYOMING REGIONAL WEATHER ROUNDUP
NATIONAL WEATHER SERVICE CHEYENNE WY
800 AM MDT THU JUL 20 2017

NOTE:  "FAIR" INDICATES FEW OR NO CLOUDS BELOW 12,000 FEET
WITH NO SIGNIFICANT WEATHER AND/OR OBSTRUCTIONS TO VISIBILITY.

WYZ001-201500-
YELLOWSTONE NATIONAL PARK

CITY           SKY/WX    TMP DP  RH WIND       PRES   REMARKS
LK YELLOWSTONE   N/A     53  45  74 CALM      30.35S
W YELLOWSTONE  NOT AVBL

$$
WYZ002>013-054>058-071-098>099-201500-
NORTHERN WYOMING

CITY           SKY/WX    TMP DP  RH WIND       PRES   REMARKS
JACKSON        SUNNY     55  43  62 N8        30.27S
CODY           FAIR      75  37  25 SE6       30.10S
GREYBULL       FAIR      75  52  44 CALM      30.03R
WORLAND        FAIR      71  59  65 SW7       30.04R
SHERIDAN       FAIR      70  53  54 CALM      30.01R
BUFFALO        FAIR      73  53  49 SE9       30.10R
GILLETTE       FAIR      77  56  48 S17G28    30.09S
HULETT         FAIR      81  55  41 S14G20    30.11F
NEWCASTLE      FAIR      73  55  53 SE8       30.15S

$$
WYZ014>020-022>026-101>103-201500-
CENTRAL WYOMING

CITY           SKY/WX    TMP DP  RH WIND       PRES   REMARKS
BIG PINEY      FAIR      55  49  80 CALM      30.33R
PINEDALE       FAIR      55  50  82 W6        30.34S
DUBOIS         FAIR      61  43  51 NW13      30.29F
LANDER         FAIR      66  55  67 CALM      30.17R
RIVERTON       FAIR      68  55  63 SW5       30.18R
CASPER         FAIR      75  53  46 S14       30.18F
DOUGLAS        FAIR      73  56  54 S9        30.19S

$$
WYZ021-027>030-104>119-201500-
SOUTHERN WYOMING

CITY           SKY/WX    TMP DP  RH WIND       PRES   REMARKS
EVANSTON       FAIR      63  50  62 SE3       30.31R
KEMMERER         N/A     61  46  59 N7        30.33S
FORT BRIDGER   FAIR      63  49  60 CALM      30.33F
ROCK SPRINGS   FAIR      64  51  62 CALM      30.29S
RAWLINS        FAIR      63  53  70 SE3       30.32F
SARATOGA       FAIR      63  54  72 SE5       30.36R
LARAMIE        FAIR      65  52  62 SW7       30.36R
CHEYENNE       FAIR      68  54  60 S5        30.30R
TORRINGTON     FAIR      70  64  81 CALM      30.16S
PINE BLUFFS    FAIR      66  61  82 CALM      30.24S

$$




USA.gov is the U.S. government's official web portal to all federal, state and local government web resources and services.